STARLINK-4531 (53425 NORAD) Tracking and Keplerian Element Data

This shows tracking and keplerian element data for the satellite.

Feedback or suggestion? Click here.




ElementValue
Catalog53425
NameSTARLINK-4531
Epoch Orbit797
Epoch Day270.25001157
Epoch Year2022
RAAN11.5284
Inclination53.218
Eccentricity0.0001869
Argument of Perigee44.473
Mean Anonmoly231.5458
Mean Motion15.49864007
Decay Rate0.00043837
L11 53425U 22097AP 22270.25001157 .00043837 00000+0 77656-3 0 9991
L22 53425 53.2180 11.5284 0001869 44.4730 231.5458 15.49864007 7972

Live tracking and technical data element details for STARLINK-4531 (NORAD 53425). STARLINK-4531 can be tracked NOW for your location showing map with azimuth and elevation plus other details from your city location.

Track the satellite on the map from your city or location and see movement details for azimuth, elevation, latitude, longitude, range, height, and movement on the map or in text.







IsCatalogInMostPopularTable: catalog: 53425, numindb: 3
Update: records affected: 1



GetName: 53425 STARLINK-4531

Hit Count: updated at: Wed, 28 Sep 2022 21:57:35 GMT